EW6920 Weather Reports


time (UTC)temp
F
wind
direction
speed
knots
gust
knots
rain 1hr
in
rain 24hr
in
rain mn
in
humidity
%
barometer
mb
20260507184549 45 263 8.7 13.9 0.00 0.00 0.00 48 1007.9
20260507183046 46 261 8.7 14.8 0.00 0.00 0.00 48 1008.0
20260507181545 45 309 7.0 14.8 0.00 0.00 0.00 45 1008.0
20260507180044 45 276 8.7 13.9 0.00 0.00 0.00 51 1008.2
20260507174602 44 338 3.5 7.8 0.00 0.00 0.00 51 1008.3
20260507173046 44 269 4.3 16.5 0.00 0.00 0.00 51 1008.5
20260507171600 43 25 4.3 8.7 0.00 0.00 0.00 48 1008.4
20260507170046 43 317 8.7 13.0 0.00 0.00 0.00 53 1008.8
20260507164551 43 267 10.4 15.6 0.00 0.00 0.00 56 1008.8
20260507163044 44 252 6.1 12.2 0.00 0.00 0.00 50 1008.9
20260507161547 44 266 7.0 12.2 0.00 0.00 0.00 51 1008.9
20260507160111 44 287 8.7 17.4 0.00 0.00 0.00 49 1009.1
20260507154546 42 294 7.0 10.4 0.00 0.00 0.00 53 1009.2
20260507153041 44 302 7.8 12.2 0.00 0.00 0.00 57 1009.2
20260507151553 42 248 7.8 12.2 0.00 0.00 0.00 57 1009.2
20260507150047 42 315 3.5 13.0 0.00 0.00 0.00 55 1009.3
20260507144545 42 277 8.7 13.9 0.00 0.00 0.00 59 1009.4
20260507143044 40 281 8.7 17.4 0.00 0.00 0.00 66 1009.4
20260507141542 40 287 6.1 10.4 0.00 0.00 0.00 68 1009.4
20260507140047 39 243 1.7 10.4 0.00 0.00 0.00 72 1009.6
20260507134546 37 265 4.3 10.4 0.00 0.00 0.00 77 1009.7
20260507133046 36 262 6.1 9.6 0.00 0.00 0.00 78 1009.7
20260507131610 36 271 6.1 9.6 0.00 0.00 0.00 79 1009.7
20260507130043 36 257 6.1 8.7 0.00 0.00 0.00 77 1009.9
20260507124552 35 275 5.2 8.7 0.00 0.00 0.00 77 1009.7
20260507123047 35 292 5.2 12.2 0.00 0.00 0.00 77 1009.8
20260507121545 36 297 4.3 7.8 0.00 0.00 0.00 75 1009.8
20260507120045 36 288 4.3 7.8 0.00 0.00 0.00 74 1009.8
20260507114541 35 288 3.5 6.1 0.00 0.00 0.00 75 1009.8
20260507113107 35 264 4.3 7.0 0.00 0.00 0.00 74 1009.6
20260507111546 35 265 3.5 7.0 0.00 0.00 0.00 75 1009.5
20260507110045 35 259 3.5 7.8 0.00 0.00 0.00 76 1009.6
20260507104557 35 275 4.3 7.8 0.00 0.00 0.00 75 1009.5
20260507103044 35 263 4.3 7.0 0.00 0.00 0.00 76 1009.5
20260507101552 35 257 3.5 6.1 0.00 0.00 0.00 74 1009.4
20260507100056 35 276 2.6 6.1 0.00 0.00 0.00 74 1009.4
20260507094550 35 269 2.6 6.1 0.00 0.00 0.00 74 1009.4
20260507093045 35 271 2.6 6.1 0.00 0.00 0.00 73 1009.4
20260507091548 35 281 2.6 6.1 0.00 0.00 0.00 73 1009.5
20260507090046 36 290 2.6 6.1 0.00 0.00 0.00 74 1009.6
20260507084555 36 272 2.6 7.8 0.00 0.00 0.00 74 1009.6
20260507083045 36 259 3.5 7.8 0.00 0.00 0.00 75 1009.7
20260507081545 36 276 3.5 6.1 0.00 0.00 0.00 74 1009.7
20260507080043 36 288 3.5 7.0 0.00 0.00 0.00 74 1009.7
20260507074548 36 259 2.6 6.1 0.00 0.00 0.00 74 1009.7
20260507073047 36 253 3.5 5.2 0.00 0.00 0.00 73 1009.8
20260507071548 36 238 2.6 5.2 0.00 0.00 0.00 74 1009.9
20260507070057 36 243 2.6 6.1 0.00 0.00 0.00 75 1010.1
20260507064547 36 290 3.5 6.1 0.00 0.00 0.00 73 1010.3
20260507063052 36 255 2.6 7.0 0.00 0.00 0.00 75 1010.4
20260507061541 36 265 3.5 6.1 0.00 0.00 0.00 72 1010.6
20260507060047 36 282 2.6 7.0 0.00 0.00 0.00 72 1010.7
20260507054546 37 278 4.3 8.7 0.00 0.00 0.00 72 1010.8
20260507053045 37 264 1.7 6.1 0.00 0.00 0.00 71 1010.9
20260507051544 37 252 3.5 6.1 0.00 0.00 0.00 73 1011.0
20260507044551 37 261 3.5 7.0 0.00 0.00 0.00 74 1011.1
20260507043045 37 257 2.6 5.2 0.00 0.00 0.00 75 1011.2
20260507041546 37 253 1.7 3.5 0.00 0.00 0.00 74 1011.2
20260507040049 37 234 2.6 4.3 0.00 0.00 0.00 75 1011.2
20260507034544 37 224 2.6 4.3 0.00 0.00 0.00 74 1011.3
20260507033049 36 247 2.6 3.5 0.00 0.00 0.00 74 1011.3
20260507031544 36 253 2.6 4.3 0.00 0.00 0.00 73 1011.4
20260507030046 36 263 0.9 3.5 0.00 0.00 0.00 71 1011.3
20260507024550 37 0 0.9 2.6 0.00 0.00 0.00 70 1011.4
20260507023040 37 0 0.0 2.6 0.00 0.00 0.00 68 1011.4
20260507021555 37 323 2.6 6.1 0.00 0.00 0.00 70 1011.5
20260507020053 37 308 3.5 7.0 0.00 0.00 0.00 70 1011.5
20260507014546 37 315 4.3 9.6 0.00 0.00 0.00 70 1011.4
20260507013048 37 309 6.1 10.4 0.00 0.00 0.00 69 1011.4
20260507011549 37 281 3.5 7.8 0.00 0.00 0.00 67 1011.3
20260507010047 38 328 2.6 5.2 0.00 0.00 0.00 64 1011.3
20260507004544 38 291 3.5 7.0 0.00 0.00 0.00 63 1011.2
20260507003044 38 288 3.5 8.7 0.00 0.00 0.00 64 1011.1
20260507001548 38 304 4.3 7.8 0.00 0.00 0.00 64 1011.1
20260507000048 38 305 5.2 9.6 0.00 0.00 0.00 62 1011.1
20260506234557 39 303 4.3 9.6 0.00 0.00 0.00 65 1011.1
20260506233045 39 252 5.2 11.3 0.00 0.00 0.00 64 1011.2
20260506231541 39 276 7.0 11.3 0.00 0.00 0.00 64 1011.3
20260506230043 39 323 7.8 12.2 0.00 0.00 0.00 63 1011.3
20260506224548 39 297 4.3 13.0 0.00 0.00 0.00 63 1011.3
20260506223050 39 255 7.0 13.9 0.00 0.00 0.00 63 1011.2
20260506221547 40 288 8.7 14.8 0.00 0.00 0.00 60 1011.2
20260506220045 40 264 8.7 13.9 0.00 0.00 0.00 64 1011.0
20260506214547 40 270 10.4 15.6 0.00 0.00 0.00 61 1011.1
20260506213047 40 292 5.2 13.9 0.00 0.00 0.00 60 1011.0
20260506211545 40 287 9.6 14.8 0.00 0.00 0.00 61 1011.0
20260506210054 40 269 9.6 14.8 0.00 0.00 0.00 63 1011.0
20260506204552 40 295 8.7 16.5 0.00 0.00 0.00 62 1011.1
20260506203048 39 307 7.8 15.6 0.00 0.00 0.00 62 1011.1
20260506201546 39 280 9.6 14.8 0.00 0.00 0.00 61 1011.2
20260506194549 38 269 7.8 13.9 0.00 0.00 0.00 62 1011.3
20260506193041 38 284 6.1 11.3 0.00 0.00 0.00 66 1011.4
20260506191548 38 313 5.2 13.0 0.00 0.00 0.00 61 1011.5
20260506190046 38 285 7.0 10.4 0.00 0.00 0.00 63 1011.4